Home   Weather   Richmond   Past weeks

Flag for USA Past Weather in Richmond, Virginia, USA — Yesterday and Last 2 Weeks

Now
69 °F

Overcast.


Feels Like: 69 °F
Forecast: 62 / 72 °F
Wind: 9 mph from Southeast

Location: Richmond International Airport

Current Time: Sep 26, 2016 at 1:23:38 PM

Latest Report: Sep 26, 2016 at 12:54 PM


Visibility: 10 mi

Pressure: 30.13 "Hg

Humidity: 66%

Dew Point: 57 °F

Location of RichmondLocation

Past Weather in Richmond — Graph

°F

Richmond Temperature Yesterday

Maximum temperature yesterday: 72 °F (at 12:54 PM)
Minimum temperature yesterday: 63 °F (at 6:54 AM)
Average temperature yesterday: 67 °F

High & Low Weather Summary for the Past Weeks

 TemperatureHumidityPressure
High90 °F (Sep 14, 3:54 PM)100% (Sep 18, 6:56 AM)30.28 "Hg (Sep 18, 6:56 AM)
Low61 °F (Sep 17, 5:54 AM)43% (Sep 12, 3:54 PM)29.98 "Hg (Sep 19, 5:54 AM)
Average73 °F79%30.12 "Hg
* Reported Sep 11 11:54 AM — Sep 26 11:54 AM, Richmond, Weather by CustomWeather, © 2016

Note: Actual official high and low records may vary slightly from our data, if they occured in-between our weather recording intervals... More about our weather records

Advertising

Richmond Weather History for the Previous 24 Hours

Scroll right to see more
 ConditionsComfort  
Time TempWeatherWind HumidityBarometerVisibility
11:54 AM
Mon, Sep 26
69 °FOvercast.13 mph66%30.14 "Hg10 mi
10:54 AM68 °FOvercast.9 mph70%30.16 "Hg10 mi
9:54 AM66 °FOvercast.6 mph78%30.16 "Hg10 mi
8:54 AM65 °FMostly cloudy.5 mph78%30.15 "Hg10 mi
7:54 AM64 °FOvercast.3 mph84%30.15 "Hg10 mi
6:54 AM64 °FOvercast.3 mph81%30.14 "Hg10 mi
5:54 AM64 °FMostly cloudy.5 mph81%30.14 "Hg10 mi
4:54 AM64 °FOvercast.3 mph81%30.15 "Hg10 mi
3:54 AM64 °FOvercast.No wind78%30.15 "Hg10 mi
2:54 AM63 °FOvercast.No wind81%30.16 "Hg10 mi
1:54 AM64 °FMostly cloudy.No wind84%30.17 "Hg10 mi
12:54 AM64 °FOvercast.No wind75%30.17 "Hg10 mi
11:54 PM
Sun, Sep 25
65 °FOvercast.No wind73%30.17 "Hg10 mi
10:54 PM64 °FPartly cloudy.5 mph75%30.18 "Hg10 mi
9:54 PM65 °FPassing clouds.8 mph81%30.17 "Hg10 mi
8:54 PM67 °FOvercast.5 mph79%30.16 "Hg10 mi
7:54 PM68 °FOvercast.No wind76%30.16 "Hg10 mi
6:54 PM69 °FOvercast.3 mph70%30.15 "Hg10 mi
5:54 PM70 °FMostly cloudy.3 mph64%30.14 "Hg10 mi
4:54 PM70 °FOvercast.5 mph64%30.14 "Hg10 mi
3:54 PM71 °FMostly cloudy.5 mph63%30.15 "Hg10 mi
2:54 PM71 °FMostly cloudy.3 mph61%30.16 "Hg10 mi
1:54 PM71 °FPartly sunny.3 mph61%30.18 "Hg10 mi
Weather by CustomWeather, © 2016

See weather overviewHow to use our weather pages